Tracking 23757 objects as of 25-Oct-2021
HD Live streaming from Space Station
objects crossing your sky now

THOR BURNER 2 R/B

Track THOR BURNER 2 R/B now!
10-day predictions


NORAD ID: 4954
Int'l Code: 1971-012B
Perigee: 745.3 km
Apogee: 797.0 km
Inclination: 98.5 °
Period: 100.1 minutes
Semi major axis: 7142 km
RCS: 1.7004 m2 (large)
Launch date: February 17, 1971
Source: United States (US)
Launch site: AIR FORCE WESTERN TEST RANGE (AFWTR)

Note: This is a ROCKET BODY
aabbcc
Your satellite tracking list
Your tracking list is empty




NASA's NSSDC Master Catalog

Two Line Element Set (TLE):
1  4954U 71012B   21298.11814273  .00000029  00000-0  23896-4 0  9995
2  4954  98.5425 154.2777 0036181 272.2764  87.4280 14.38335450652377
Source of the keplerian elements: AFSPC